Location: Caualo
(45.5667°N, 10.8667°E)
Time: 13:48:17
(UTC+00:00)

NPP - Pass Details

Date: 07 June 2020
Orbit: 826 x 828 km, 98.7° (Epoch: 15 July)

Event Time Altitude Azimuth Distance (km) Brightness Sun altitude
Rises 01:11:27 0° 13° (NNE) 3,379 8.4 -16.7°
Reaches altitude 10° 01:13:49 10° 14° (NNE) 2,441 7.3 -16.5°
Maximum altitude 01:19:14 87° 285° (WNW) 835 3.6 -16.1°
Enters shadow 01:22:35 24° 198° (SSW) 1,648 4.6 -15.8°
